Location: Newark
(34.9500°N, 139.9667°E)
Time: 06:45:06
(UTC+00:00)

deb Explorer IX - Pass Details

Date: 15 December 2019
Orbit: 548 x 1101 km, 38.8° (Epoch: 20 January)

Event Time Altitude Azimuth Distance (km) Brightness Sun altitude
Rises 11:22:45 0° 284° (WNW) 3,638 ? -46.8°
Reaches altitude 10° 11:25:36 10° 274° (W) 2,765 ? -47.4°
Enters shadow 11:27:16 17° 264° (W) 2,326 ? -47.7°
